This demonstration page uses our WeatherBlox Daily Observations layout. Learn more.

Left ArrowRight Arrow

Hourly Observations for October 17, 2015

Temp ( °F °C ) Dew Point ( °F °C ) Humidity (%) Winds ( mph kmh ) Pressure ( in mb ) Visibility ( mi km ) Precip ( " mm )
12:53 am 00:53 Clear 41 5 31 -0.6 67 67 Calm 30.29 1026 10 16 0.00 0.00
1:53 am 01:53 Clear 35 1.7 31 -0.6 85 85 Calm 30.30 1026 10 16 0.00 0.00
2:53 am 02:53 Clear 33 0.6 30 -1.1 89 89 Calm 30.31 1026 10 16 0.00 0.00
3:53 am 03:53 Clear 31 -0.6 29 -1.7 92 92 Calm 30.31 1027 10 16 0.00 0.00
4:53 am 04:53 Clear 30 -1.1 28 -2.2 92 92 Calm 30.32 1027 10 16 0.00 0.00
5:53 am 05:53 Clear 29 -1.7 27 -2.8 92 92 Calm 30.33 1027 10 16 0.00 0.00
6:53 am 06:53 Clear 29 -1.7 27 -2.8 92 92 Calm 30.35 1028 10 16 0.00 0.00
7:53 am 07:53 Sunny 28 -2.2 26 -3.3 92 92 Calm 30.37 1029 10 16 0.00 0.00
8:53 am 08:53 Sunny 33 0.6 28 -2.2 82 82 Calm 30.39 1029 10 16 0.00 0.00
9:53 am 09:53 Mostly Cloudy 42 5.6 31 -0.6 65 65 Calm 30.40 1030 10 16 0.00 0.00
10:53 am 10:53 Cloudy 46 7.8 30 -1.1 54 54 Calm 30.41 1030 10 16 0.00 0.00
11:53 am 11:53 Cloudy 49 9.4 31 -0.6 50 50 VRB 6 9 30.40 1030 10 16 0.00 0.00
12:53 pm 12:53 Mostly Cloudy 51 10.6 31 -0.6 46 46 WSW 5 7 30.40 1029 10 16 0.00 0.00
1:53 pm 13:53 Cloudy 52 11.1 30 -1.1 43 43 NW 7 11 30.39 1029 10 16 0.00 0.00
2:53 pm 14:53 Cloudy 54 12.2 28 -2.2 37 37 NNW 10 17 30.37 1028 10 16 0.00 0.00
3:53 pm 15:53 Mostly Cloudy 53 11.7 25 -3.9 34 34 NNW 12 19 30.36 1028 10 16 0.00 0.00
4:53 pm 16:53 Mostly Cloudy 54 12.2 24 -4.4 31 31 NW 15 24 30.37 1029 10 16 0.00 0.00
5:53 pm 17:53 Mostly Cloudy 52 11.1 28 -2.2 40 40 NW 13 20 30.38 1029 10 16 0.00 0.00
6:53 pm 18:53 Mostly Sunny 48 8.9 29 -1.7 48 48 NNW 7 11 30.40 1029 10 16 0.00 0.00
7:53 pm 19:53 Clear 42 5.6 28 -2.2 58 58 NNW 5 7 30.41 1030 10 16 0.00 0.00
8:53 pm 20:53 Clear 36 2.2 28 -2.2 73 73 N 5 7 30.42 1030 10 16 0.00 0.00
9:53 pm 21:53 Clear 34 1.1 27 -2.8 76 76 NNW 5 7 30.44 1031 10 16 0.00 0.00
10:53 pm 22:53 Clear 35 1.7 26 -3.3 70 70 NNW 6 9 30.45 1031 10 16 0.00 0.00
11:53 pm 23:53 Clear 33 0.6 25 -3.9 72 72 NNW 5 7 30.45 1031 10 16 0.00 0.00

Powered by AerisWeather